Regional Weather Roundup
Issued by NWS Albany, NY

Home | Current Version | Previous Version | Text Only | Print | Product List | Glossary On
Versions: 1 2 3 4 5 6 7 8 9 10 11 12 13 14 15 16 17 18 19 20 21 22 23 24 25 26 27 28 29 30 31 32 33 34 35 36 37 38 39 40 41 42 43 44 45 46 47 48 49 50
000
ASUS41 KALY 070010
RWRALY

NEW YORK STATE HOURLY WEATHER ROUNDUP
NATIONAL WEATHER SERVICE ALBANY NY
800 PM EDT WED MAY 06 2015

NOTE: "FAIR" INDICATES FEW OR NO CLOUDS BELOW 12,000 FEET WITH NO
SIGNIFICANT WEATHER AND/OR NO OBSTRUCTIONS TO VISIBILITY.

NYZ032-033-038>043-046>054-057>066-NYZ062>081-070100-
EAST


CITY           SKY/WX    TMP DP  RH WIND       PRES   REMARKS
ALBANY         PTCLDY    71  33  24 S8        30.17R
GLENS FALLS    CLEAR     68  38  33 S5        30.15S
POUGHKEEPSIE   CLEAR     67  40  37 CALM      30.20S
NEWBURGH       CLEAR     66  43  42 CALM      30.22F
MONTGOMERY     CLEAR     64  46  52 SW3       30.21R
WHITE PLAINS   PTCLDY    60  44  55 S3        30.22S
ISLIP          PTCLDY    61  38  42 SE5       30.21S
NEW YORK CITY  PTCLDY    66  42  41 SE8       30.22S
CENTRAL PARK   CLEAR     63  43  48 VRB3      30.25S
$$

NYZ005>009-017-018-044>046-055-056-070100-
CENTRAL


CITY           SKY/WX    TMP DP  RH WIND       PRES   REMARKS
FULTON         CLEAR     64  38  38 N5        30.19S
SYRACUSE       PTCLDY    67  39  35 NW10      30.17R
ROME           CLEAR     72  31  22 N6        30.17S
ELMIRA         CLEAR     63  54  72 S6        30.21S
BINGHAMTON     CLEAR     61  49  64 SW5       30.22S
MONTICELLO     CLEAR     61  45  55 SW3       30.25R
$$

NYZ026>034-041>043-070100-
NORTH


CITY           SKY/WX    TMP DP  RH WIND       PRES   REMARKS
WATERTOWN      CLEAR     64  39  39 CALM      30.18S
FORT DRUM      NOT AVBL
MASSENA        CLEAR     69  34  27 SW6       30.16S
SARANAC LAKE   CLEAR     65  31  28 CALM      30.18S
PLATTSBURGH    CLEAR     63  35  35 CALM      30.14S
$$

NYZ001>004-010>016-019>021-070100-
WEST


CITY           SKY/WX    TMP DP  RH WIND       PRES   REMARKS
NIAGARA FALLS  PTCLDY    65  40  39 NE8       30.17S
BUFFALO        MOCLDY    69  41  36 NE9       30.16S
DUNKIRK        CLEAR     64  52  64 CALM      30.17S
JAMESTOWN      CLEAR     64  54  68 E6        30.20S
WELLSVILLE     MOCLDY    59  52  77 S7        30.24S
ROCHESTER      PTCLDY    65  37  35 E7        30.18F
PENN YAN       CLEAR     66  52  60 S6        30.20S
$$

             KEY
       WCI = WIND CHILL INDEX
       VSB = VISIBILITY
       HX  = HEAT INDEX
$$


USA.gov is the U.S. government's official web portal to all federal, state and local government web resources and services.